STARLINK-5171 (54077 NORAD) Tracking and Keplerian Element Data

This shows tracking and keplerian element data for the satellite.

Feedback or suggestion? Click here.




ElementValue
Catalog54077
NameSTARLINK-5171
Epoch Orbit130
Epoch Day324.91667824
Epoch Year2022
RAAN352.9609
Inclination53.2153
Eccentricity0.0003889
Argument of Perigee1.5886
Mean Anonmoly139.7485
Mean Motion15.73151471
Decay Rate0.00048641
L11 54077U 22136AC 22324.91667824 .00048641 00000+0 34960-3 0 9990
L22 54077 53.2153 352.9609 0003889 1.5886 139.7485 15.73151471 1300



Live tracking and technical data element details for STARLINK-5171 (NORAD 54077). STARLINK-5171 can be tracked NOW for your location showing map with azimuth and elevation plus other details from your city location.







IsCatalogInMostPopularTable: catalog: 54077, numindb: 2
Update: records affected: 1



GetName: 54077 STARLINK-5171

Hit Count: updated at: Fri, 09 Dec 2022 20:17:39 GMT